This demonstration page uses our WeatherBlox Daily Observations layout. Learn more.

Left ArrowRight Arrow

Hourly Observations for February 28, 2016

Temp ( °F °C ) Dew Point ( °F °C ) Humidity (%) Winds ( mph kmh ) Pressure ( in mb ) Visibility ( mi km ) Precip ( " mm )
12:54 am 00:54 Clear 58 14.4 34 1.1 41 41 SW 18 30 29.56 1001 10 16 0.00 0.00
1:54 am 01:54 Clear 56 13.3 35 1.7 46 46 SW 14 22 29.57 1001 10 16 0.00 0.00
2:54 am 02:54 Clear 53 11.7 36 2.2 52 52 SW 14 22 29.54 1000 10 16 0.00 0.00
3:54 am 03:54 Clear 53 11.7 36 2.2 52 52 SW 5 7 29.52 1000 10 16 0.00 0.00
4:54 am 04:54 Clear 49 9.4 35 1.7 59 59 Calm 29.53 1000 10 16 0.00 0.00
5:54 am 05:54 Clear 48 8.9 33 0.6 56 56 WNW 5 7 29.55 1001 10 16 0.00 0.00
6:54 am 06:54 Clear 53 11.7 33 0.6 47 47 NW 17 28 29.56 1001 10 16 0.00 0.00
7:54 am 07:54 Sunny 55 12.8 35 1.7 47 47 NNW 35 56 29.60 1002 10 16 0.00 0.00
8:54 am 08:54 Sunny 56 13.3 37 2.8 49 49 NNW 30 48 29.66 1004 10 16 0.00 0.00
9:54 am 09:54 Sunny 56 13.3 39 3.9 53 53 NNW 31 50 29.72 1006 10 16 0.00 0.00
10:54 am 10:54 Mostly Sunny 56 13.3 38 3.3 51 51 NNW 33 54 29.78 1008 10 16 0.00 0.00
11:54 am 11:54 Sunny 56 13.3 35 1.7 46 46 NW 35 56 29.82 1010 10 16 0.00 0.00
12:54 pm 12:54 Sunny 55 12.8 31 -0.6 40 40 NNW 26 43 29.86 1011 10 16 0.00 0.00
1:54 pm 13:54 Sunny 55 12.8 29 -1.7 37 37 NNW 32 52 29.89 1012 10 16 0.00 0.00
2:54 pm 14:54 Mostly Sunny 57 13.9 30 -1.1 36 36 NNW 24 39 29.91 1013 10 16 0.00 0.00
3:54 pm 15:54 Sunny 56 13.3 29 -1.7 36 36 NNW 24 39 29.93 1014 10 16 0.00 0.00
4:54 pm 16:54 Sunny 56 13.3 31 -0.6 39 39 NNW 17 28 29.94 1014 10 16 0.00 0.00
5:54 pm 17:54 Mostly Sunny 54 12.2 29 -1.7 38 38 NNW 15 24 29.97 1015 10 16 0.00 0.00
6:54 pm 18:54 Clear 51 10.6 28 -2.2 41 41 NW 9 15 30.00 1016 10 16 0.00 0.00
7:54 pm 19:54 Clear 48 8.9 28 -2.2 46 46 WNW 6 9 30.01 1016 10 16 0.00 0.00
8:54 pm 20:54 Clear 37 2.8 26 -3.3 65 65 NNE 5 7 30.02 1017 10 16 0.00 0.00
9:54 pm 21:54 Clear 32 0 24 -4.4 73 73 Calm 30.02 1017 10 16 0.00 0.00
10:54 pm 22:54 Clear 37 2.8 27 -2.8 67 67 Calm 30.01 1016 10 16 0.00 0.00
11:54 pm 23:54 Clear 33 0.6 26 -3.3 75 75 SE 3 6 30.01 1016 10 16 0.00 0.00

Powered by AerisWeather